Location: Boise
(43.6140°N, 116.2030°W)
Time: 17:14:02
(UTC-07:00)

Daily predictions for brighter satellites

Satellite Brightness Start Highest point End
(mag) Time Altitude Azimuth Time Altitude Azimuth Time Altitude Azimuth
COSMOS 2455 2.9 17:39:26 10° SSW 17:45:23 71° ESE 17:51:23 10° NE
CZ-4 R/B 2.0 17:42:10 10° SE 17:45:34 30° ENE 17:48:57 10° N
Cosmos 1933 3.3 17:41:52 10° S 17:45:53 88° E 17:49:56 10° N
Timation 1 Rocket 4.5 17:43:23 10° S 17:49:14 60° ESE 17:55:09 10° NNE
Cosmos 1606 4.2 17:47:32 10° SE 17:49:59 17° E 17:52:28 10° NE
Cosmos 468 Rocket 4.1 17:45:12 10° NNW 17:50:24 84° WSW 17:55:32 10° SSE
Cosmos 1484 Rocket 2.9 17:49:09 10° SSE 17:52:54 52° ENE 17:56:44 10° N
CZ-4C R/B 3.7 17:56:55 10° NNW 18:02:43 28° NE 18:09:09 10° E
IRAS Rocket 4.5 17:57:50 10° SSE 18:03:23 76° WSW 18:08:55 10° NNW
SJ-7 4.4 18:00:17 10° SSE 18:04:27 82° ENE 18:08:34 10° N
Cosmos 1816 Rocket 4.5 17:59:45 10° N 18:05:55 88° E 18:12:04 10° S
Cosmos 1782 Rocket 4.3 18:04:11 10° NNE 18:08:00 29° ENE 18:11:48 10° SE
Cosmos 1763 Rocket 3.4 18:03:25 10° NNW 18:08:40 84° ENE 18:13:47 10° SSE
Cosmos 1340 3.8 18:06:24 10° SSW 18:10:01 44° WNW 18:13:40 10° N
CZ-2C R/B 4.0 18:05:36 10° SSW 18:10:17 40° W 18:15:07 10° NNW
CSL-04 Rocket 3.8 18:07:37 10° S 18:12:54 77° WSW 18:18:16 10° NNW
USA 116 4.1 18:09:25 10° NNE 18:13:48 50° E 18:17:38 10° S
Cosmos 2082 Rocket 2.6 18:08:30 10° NNW 18:13:51 40° ENE 18:19:08 10° SE
Cosmos 1725 Rocket 4.4 18:08:00 10° SSW 18:14:15 69° W 18:20:29 10° N
COSMO-SKYMED 1 3.4 18:10:30 10° NE 18:14:18 29° E 18:18:04 10° SSE
Cosmos 1782 3.5 18:11:55 10° SSE 18:15:33 33° E 18:19:11 10° NNE
YAOGAN 1 2.7 18:11:37 10° SSE 18:15:47 50° ENE 18:19:59 10° N
Meteor 1-20 Rocket 4.1 18:12:42 10° N 18:18:14 63° ENE 18:23:39 10° SSE
METEOR-M 4.3 18:13:20 10° SE 18:18:26 48° ENE 18:23:33 10° N
Meteor 1-25 Rocket 4.2 18:12:59 10° N 18:18:51 71° ENE 18:24:37 10° SSE
SL-27 R/B 2.4 18:15:58 10° N 18:19:14 50° ENE 18:22:29 10° SE
ERS-2 2.4 18:18:02 10° SE 18:21:31 43° ENE 18:25:01 10° N
Cosmos 405 Rocket 4.0 18:20:17 10° SE 18:22:59 19° E 18:23:02 19° E
Cosmos 1814 Rocket 4.5 18:18:21 10° NNW 18:23:40 67° WSW 18:28:58 10° S
MTI 4.1 18:24:41 14° NNE 18:27:13 43° E 18:30:18 10° S
Cosmos 44 Rocket 3.9 18:26:24 10° NNW 18:30:52 35° NE 18:33:54 18° ESE
Cosmos 2221 Rocket 3.9 18:28:33 10° SSE 18:32:39 40° E 18:36:48 10° NNE
Cosmos 1503 Rocket 4.2 18:29:29 10° S 18:34:31 47° ESE 18:38:43 14° NE
Cosmos 540 Rocket 3.5 18:29:49 10° NNW 18:34:55 56° ENE 18:39:59 10° SE
BREEZE-M R/B 2.5 18:32:17 10° WNW 18:34:56 74° SSW 18:38:43 12° SE
Lacrosse 5 3.7 18:32:10 10° WNW 18:35:51 20° NNW 18:38:55 12° NNE
CZ-2C R/B 3.6 18:32:30 10° NNE 18:37:00 88° WNW 18:41:33 10° SSW
Cosmos 1703 Rocket 3.5 18:32:48 10° S 18:37:15 74° E 18:41:43 10° NNE
Ariane Rocket 4.0 18:33:14 10° S 18:38:09 50° W 18:43:06 10° NNW
Cosmos 2034 Rocket 4.4 18:34:57 10° SSE 18:40:48 40° E 18:46:40 10° NNE
Cosmos 292 Rocket 4.1 18:36:41 10° N 18:41:08 39° ENE 18:45:13 12° SE
MONITOR-E 4.1 18:38:38 10° SSE 18:41:36 54° ENE 18:44:36 10° N
Cosmos 1844 Rocket 4.4 18:37:16 10° WSW 18:42:06 28° NW 18:46:56 10° N
Meteor 1-27 Rocket 4.3 18:38:55 10° SSE 18:44:12 36° E 18:49:09 12° NNE
Cosmos 841 Rocket 4.0 18:39:03 10° NNW 18:44:17 65° WSW 18:49:28 10° S
Cosmos 836 Rocket 4.4 18:40:42 10° NNW 18:45:57 68° ENE 18:51:11 10° SSE
Cosmos 1633 2.4 18:42:31 10° N 18:46:11 86° E 18:49:51 10° S
USA 234 3.6 18:42:57 22° ENE 18:47:00 49° SE 18:53:16 10° SSW
Okean 2 Rocket 3.2 18:45:56 10° N 18:50:23 53° ENE 18:54:48 10° SSE
Meteor 1-10 Rocket 4.2 18:47:28 10° S 18:53:04 69° E 18:58:50 10° NNE
FENGYUN 3A 3.6 18:53:22 10° SSE 18:58:43 67° ENE 19:04:05 10° N
Cosmos 44 3.2 18:54:21 10° NNW 18:58:58 63° NE 19:01:26 28° SE
SKYMED 2 3.5 18:58:07 10° NNE 19:02:29 85° WNW 19:06:49 10° SSW
Cosmos 1464 Rocket 3.9 19:02:41 10° S 19:08:48 88° E 19:15:00 10° N
Cosmos 1833 Rocket 2.8 19:04:02 10° NNW 19:09:41 78° WSW 19:15:17 10° SSE
ALOS 2.2 19:07:08 10° SSE 19:11:48 89° WSW 19:16:31 10° NNW
Cosmos 1354 Rocket 4.0 19:07:52 10° SSW 19:13:09 81° WNW 19:16:48 21° NNE
Cosmos 2297 3.7 19:08:56 10° SSW 19:14:39 88° WNW 19:18:12 25° NNE
SPOT 3 Rocket 3.7 19:10:15 10° S 19:15:28 75° WSW 19:20:42 10° NNW
Cosmos 783 Rocket 4.4 19:11:18 10° NNW 19:16:37 65° ENE 19:18:50 34° SE
Cosmos 2278 Rocket 3.5 19:14:12 10° WSW 19:19:26 37° NW 19:24:41 10° N
CZ-4 R/B 4.0 19:17:47 10° SW 19:20:39 20° W 19:23:32 10° NW
Meteor 1-11 Rocket 3.6 19:16:18 10° N 19:22:12 78° E 19:27:56 10° SSE
Cosmos 1441 Rocket 3.7 19:21:27 10° S 19:24:32 53° S 19:24:32 53° S
Cosmos 1606 4.4 19:22:06 10° SW 19:25:30 31° WNW 19:28:55 10° NNW
Okean 1-7 4.2 19:25:33 10° SSW 19:29:43 42° WNW 19:33:55 10° N
CENTAUR R/B 4.3 19:25:53 10° W 19:31:09 25° NNW 19:35:46 14° NNE
Meteor 2-20 Rocket 4.3 19:29:58 10° N 19:36:07 82° E 19:42:11 10° S
USA 229 DEB 4.3 19:30:14 10° S 19:35:11 37° SE 19:35:11 37° SE
USA 229 4.3 19:30:21 10° S 19:35:14 36° SE 19:35:14 36° SE
Thor Agena Rocket 4.2 19:48:43 43° S 19:48:43 43° S 19:52:08 10° SSW
CZ-4C R/B 2.8 19:45:00 10° NW 19:52:12 88° ENE 19:54:34 50° SE
Cosmos 2082 Rocket 3.8 19:52:49 10° NW 19:57:48 32° WSW 20:02:45 10° SSW
Lacrosse 5 4.2 20:16:48 10° NW 20:18:06 15° NNW 20:18:06 15° NNW
USA 234 3.6 20:30:18 57° NW 20:30:18 57° NW 20:36:26 10° WSW
